カタログに戻る

ICEYE-X51

運用中科学SSO
NORAD 63257·PAYLOAD·🇺🇸 United States

打ち上げ Mar 15, 2025 から Vandenberg Space Force Base

Loading…

次のパス (今後24時間)

TLE

最新Source: Space-Track

元期: Sep 14, 2026, 20:40 UTC

1 63257U 25052AZ  26257.86121865  .00003772  00000-0  30130-3 0  9995
2 63257  97.7701 152.8601 0001854  61.0141 299.1268 15.00867786 82252

AllMySatでICEYE-X51をリアルタイム追跡

Download on the App Store